Home   Weather   Knittelfeld   Past weeks

Flag for Austria Past Weather in Knittelfeld, Styria, Austria — Yesterday and Last 2 Weeks

Now
48 °F

Light rain. Broken clouds.


Feels Like: 45 °F
Forecast: 39 / 51 °F
Wind: 7 mph from East

Location: Zeltweg

Current Time: Apr 27, 2017 at 3:10:36 pm

Latest Report: Apr 27, 2017 at 2:20 pm


Visibility: 15 mi

Pressure: 29.80 "Hg (27.57 "Hg at 641m altitude)

Humidity: 82%

Dew Point: 43 °F

Location of KnittelfeldLocation

Past Weather in Knittelfeld — Graph

°F

Knittelfeld Temperature Yesterday

Maximum temperature yesterday: 61 °F (at 12:20 pm)
Minimum temperature yesterday: 50 °F (at 10:50 pm)
Average temperature yesterday: 56 °F

High & Low Weather Summary for the Past Weeks

 TemperatureHumidityPressure
High64 °F (Apr 25, 1:20 pm)100% (Apr 24, 7:20 am)30.39 "Hg (Apr 24, 7:20 am)
Low23 °F (Apr 21, 4:50 am)29% (Apr 21, 1:20 pm)29.68 "Hg (Apr 26, 1:50 am)
Average47 °F57%29.98 "Hg
* Reported Apr 12 1:20 pm — Apr 27 1:50 pm, Knittelfeld, Weather by CustomWeather, © 2017

Note: Actual official high and low records may vary slightly from our data, if they occured in-between our weather recording intervals... More about our weather records

Advertising

Knittelfeld Weather History for the Previous 24 Hours

Scroll right to see more
 ConditionsComfort  
Time TempWeatherWind HumidityBarometerVisibility
1:50 pm
Thu, Apr 27
48 °FBroken clouds.8 mph82%29.80 "Hg16 mi
1:20 pm48 °FBroken clouds.5 mph82%29.83 "Hg16 mi
12:50 pm46 °FLight rain. Broken clouds.5 mph87%29.83 "Hg16 mi
12:20 pm46 °FLight rain. Broken clouds.3 mph87%29.83 "Hg9 mi
11:50 am45 °FLight rain. Broken clouds.6 mph87%29.83 "Hg12 mi
11:20 am45 °FLight rain. Broken clouds.7 mph87%29.83 "Hg6 mi
10:50 am45 °FLight rain. Broken clouds.6 mph87%29.83 "Hg5 mi
10:20 am45 °FLight rain. Broken clouds.7 mph87%29.80 "Hg5 mi
9:50 am45 °FLight rain. Partly sunny.9 mph87%29.80 "Hg5 mi
9:20 am45 °FLight rain. Broken clouds.7 mph87%29.80 "Hg5 mi
8:50 am45 °FLight rain. Broken clouds.9 mph87%29.77 "Hg5 mi
7:50 am45 °FLight rain. Broken clouds.8 mph87%29.77 "Hg5 mi
7:20 am45 °FLight rain. Broken clouds.3 mph93%29.77 "Hg5 mi
6:50 am45 °FLight rain. Broken clouds.6 mph87%29.74 "Hg5 mi
5:50 am45 °FLight rain. Partly cloudy.6 mph93%29.74 "Hg6 mi
4:50 am46 °FLight rain. Overcast.2 mph93%29.71 "Hg6 mi
1:50 am50 °FPassing clouds.3 mph76%29.74 "Hg12 mi
10:50 pm
Wed, Apr 26
50 °FOvercast.3 mph67%29.77 "Hg12 mi
9:50 pm52 °FPassing clouds.7 mph62%29.77 "Hg12 mi
8:50 pm54 °FPassing clouds.2 mph58%29.77 "Hg12 mi
7:50 pm54 °FPartly sunny.12 mph58%29.77 "Hg16 mi
6:50 pm55 °FPartly sunny.10 mph59%29.74 "Hg16 mi
5:50 pm55 °FPartly sunny.16 mph55%29.74 "Hg16 mi
4:50 pm55 °FPartly sunny.17 mph59%29.74 "Hg16 mi
4:20 pm57 °FPartly sunny.16 mph55%29.74 "Hg16 mi
3:50 pm55 °FPartly sunny.16 mph59%29.74 "Hg16 mi
3:20 pm55 °FPartly sunny.15 mph55%29.74 "Hg16 mi
Weather by CustomWeather, © 2017

See weather overviewHow to use our weather pages